Radiation Dose at Monitoring Post of Fukushima Daini Nuclear Power Station
Date,Time,MP-1(microSv/h),MP-2(microSv/h),MP-3(microSv/h),MP-4(microSv/h),MP-5(microSv/h),MP-6(microSv/h),MP-7(microSv/h),Wind Direction,Wind Velocity(m/s),Rain
2023/03/10,00:00,0.158,0.143,0.225,0.220,0.218,0.126,0.079,-,CALM,No
2023/03/10,00:10,0.158,0.142,0.226,0.220,0.218,0.126,0.080,-,CALM,No
2023/03/10,00:20,0.159,0.142,0.225,0.221,0.217,0.127,0.080,southeast,0.8,No
2023/03/10,00:30,0.159,0.142,0.225,0.220,0.217,0.126,0.080,south-southeast,0.7,No
2023/03/10,00:40,0.158,0.143,0.226,0.220,0.216,0.126,0.080,east-southeast,1.7,No
2023/03/10,00:50,0.158,0.142,0.225,0.220,0.218,0.126,0.080,southeast,3.4,No
2023/03/10,01:00,0.159,0.144,0.226,0.220,0.217,0.126,0.081,south-southeast,2.7,No
2023/03/10,01:10,0.159,0.143,0.224,0.220,0.217,0.126,0.080,south-southeast,3.3,No
2023/03/10,01:20,0.159,0.143,0.226,0.220,0.219,0.126,0.080,south,1.8,No
2023/03/10,01:30,0.159,0.143,0.225,0.221,0.217,0.126,0.079,south,2.8,No
2023/03/10,01:40,0.159,0.143,0.225,0.219,0.217,0.126,0.080,south,4.7,No
2023/03/10,01:50,0.158,0.144,0.225,0.220,0.217,0.126,0.080,south,2.9,No
2023/03/10,02:00,0.159,0.143,0.225,0.221,0.217,0.126,0.080,southwest,1.1,No
2023/03/10,02:10,0.158,0.144,0.225,0.219,0.218,0.126,0.079,southwest,1.6,No
2023/03/10,02:20,0.158,0.143,0.224,0.220,0.218,0.126,0.080,south,2.7,No
2023/03/10,02:30,0.159,0.143,0.225,0.221,0.216,0.126,0.080,south-southwest,4.5,No
2023/03/10,02:40,0.157,0.142,0.225,0.219,0.217,0.125,0.079,south-southwest,4.8,No
2023/03/10,02:50,0.157,0.143,0.224,0.220,0.216,0.126,0.080,south-southwest,5.0,No
2023/03/10,03:00,0.158,0.142,0.224,0.220,0.216,0.126,0.079,south,5.6,No
2023/03/10,03:10,0.158,0.143,0.224,0.219,0.217,0.126,0.080,south,5.5,No
2023/03/10,03:20,0.159,0.143,0.223,0.219,0.217,0.126,0.080,south,5.2,No
2023/03/10,03:30,0.158,0.142,0.224,0.219,0.217,0.125,0.079,south,4.8,No
2023/03/10,03:40,0.158,0.142,0.225,0.220,0.217,0.125,0.079,south,4.8,No
2023/03/10,03:50,0.158,0.142,0.225,0.218,0.216,0.125,0.079,south,3.7,No
2023/03/10,04:00,0.157,0.142,0.224,0.219,0.217,0.125,0.079,south-southwest,2.7,No
2023/03/10,04:10,0.158,0.143,0.225,0.218,0.216,0.125,0.079,south-southwest,2.7,No
2023/03/10,04:20,0.157,0.142,0.224,0.219,0.217,0.125,0.079,south,3.2,No
2023/03/10,04:30,0.159,0.142,0.224,0.219,0.217,0.125,0.079,south-southwest,3.5,No
2023/03/10,04:40,0.158,0.143,0.225,0.219,0.216,0.125,0.079,south-southwest,3.9,No
2023/03/10,04:50,0.157,0.141,0.225,0.219,0.217,0.126,0.079,south,3.6,No
2023/03/10,05:00,0.158,0.143,0.224,0.219,0.217,0.125,0.079,south-southwest,3.7,No
2023/03/10,05:10,0.159,0.143,0.225,0.219,0.216,0.126,0.079,south-southwest,2.7,No
2023/03/10,05:20,0.159,0.142,0.224,0.220,0.217,0.126,0.079,south,3.6,No
2023/03/10,05:30,0.159,0.142,0.225,0.220,0.215,0.125,0.079,south,3.2,No
2023/03/10,05:40,0.159,0.143,0.225,0.220,0.217,0.126,0.079,south-southwest,2.9,No
2023/03/10,05:50,0.158,0.142,0.224,0.219,0.216,0.125,0.080,south,2.6,No
2023/03/10,06:00,0.159,0.142,0.224,0.220,0.215,0.126,0.080,south,2.1,No
2023/03/10,06:10,0.159,0.143,0.225,0.220,0.217,0.125,0.080,south,2.6,No
2023/03/10,06:20,0.157,0.142,0.225,0.218,0.216,0.125,0.079,south,2.3,No
2023/03/10,06:30,0.158,0.142,0.224,0.221,0.216,0.125,0.079,south,2.4,No
2023/03/10,06:40,0.157,0.142,0.224,0.219,0.217,0.125,0.080,south-southeast,3.1,No
2023/03/10,06:50,0.158,0.142,0.223,0.218,0.215,0.126,0.079,south,2.1,No
2023/03/10,07:00,0.157,0.142,0.224,0.219,0.217,0.125,0.079,south,1.8,No
2023/03/10,07:10,0.157,0.141,0.224,0.219,0.215,0.125,0.078,south,4.5,No
2023/03/10,07:20,0.159,0.142,0.223,0.218,0.217,0.125,0.080,south-southwest,3.5,No
2023/03/10,07:30,0.157,0.142,0.223,0.219,0.215,0.125,0.080,south-southwest,3.0,No
2023/03/10,07:40,0.157,0.143,0.224,0.217,0.216,0.125,0.079,west-southwest,2.0,No
2023/03/10,07:50,0.158,0.142,0.224,0.218,0.215,0.125,0.079,west-northwest,2.6,No
2023/03/10,08:00,0.158,0.143,0.223,0.219,0.219,0.126,0.079,-,CALM,No
2023/03/10,08:10,0.156,0.143,0.224,0.219,0.217,0.125,0.079,northwest,2.3,No
2023/03/10,08:20,0.157,0.142,0.223,0.218,0.217,0.125,0.079,north-northwest,3.4,No
2023/03/10,08:30,0.158,0.142,0.225,0.219,0.216,0.125,0.080,north,0.9,No
2023/03/10,08:40,0.157,0.141,0.223,0.217,0.218,0.125,0.079,east,1.1,No
2023/03/10,08:50,0.158,0.142,0.224,0.219,0.217,0.125,0.078,northwest,0.9,No
2023/03/10,09:00,0.157,0.141,0.224,0.219,0.217,0.126,0.080,-,CALM,No
2023/03/10,09:10,0.159,0.142,0.223,0.218,0.216,0.125,0.079,east-southeast,0.9,No
2023/03/10,09:20,0.157,0.141,0.223,0.219,0.217,0.125,0.079,east-southeast,0.8,Yes
2023/03/10,09:30,0.160,0.142,0.223,0.219,0.215,0.125,0.079,-,CALM,No
2023/03/10,09:40,0.156,0.142,0.224,0.218,0.216,0.126,0.079,west,1.1,No
2023/03/10,09:50,0.158,0.141,0.222,0.219,0.215,0.125,0.079,northwest,3.0,No
2023/03/10,10:00,0.158,0.142,0.224,0.217,0.217,0.125,0.079,west-northwest,1.9,No
2023/03/10,10:10,0.157,0.142,0.223,0.219,0.215,0.125,0.078,southwest,1.0,No
2023/03/10,10:20,0.157,0.142,0.223,0.219,0.218,0.126,0.079,south,2.0,No
2023/03/10,10:30,0.159,0.141,0.223,0.220,0.216,0.125,0.079,south-southwest,1.6,No
2023/03/10,10:40,0.157,0.142,0.225,0.218,0.218,0.125,0.079,southwest,2.0,No
2023/03/10,10:50,0.157,0.142,0.223,0.219,0.216,0.125,0.079,south-southwest,2.6,No
2023/03/10,11:00,0.158,0.142,0.224,0.218,0.217,0.125,0.078,south-southeast,3.3,No
2023/03/10,11:10,0.158,0.141,0.223,0.219,0.217,0.124,0.079,south-southeast,4.1,No
2023/03/10,11:20,0.158,0.141,0.224,0.219,0.216,0.125,0.079,south-southeast,5.3,No
2023/03/10,11:30,0.157,0.141,0.222,0.220,0.216,0.125,0.079,south-southeast,3.7,No
2023/03/10,11:40,0.158,0.143,0.226,0.218,0.215,0.125,0.079,south,2.7,No
2023/03/10,11:50,0.157,0.142,0.223,0.220,0.217,0.125,0.079,south-southwest,2.8,No
2023/03/10,12:00,0.157,0.139,0.222,0.218,0.215,0.124,0.078,west-southwest,2.3,No
2023/03/10,12:10,0.158,0.142,0.224,0.216,0.214,0.124,0.079,west,7.0,No
2023/03/10,12:20,0.156,0.142,0.223,0.219,0.216,0.126,0.079,west,9.0,No
2023/03/10,12:30,0.156,0.140,0.222,0.219,0.215,0.125,0.078,west,7.1,No
2023/03/10,12:40,0.156,0.142,0.222,0.218,0.214,0.124,0.079,west-southwest,5.3,No
2023/03/10,12:50,0.158,0.143,0.222,0.217,0.213,0.125,0.079,west-northwest,6.3,No
2023/03/10,13:00,0.157,0.141,0.224,0.218,0.215,0.125,0.080,northwest,6.1,No
2023/03/10,13:10,0.157,0.140,0.225,0.219,0.217,0.124,0.079,west,8.5,No
2023/03/10,13:20,0.156,0.142,0.223,0.218,0.216,0.125,0.078,west-northwest,7.2,No
2023/03/10,13:30,0.158,0.141,0.221,0.217,0.214,0.125,0.080,west,6.8,No
2023/03/10,13:40,0.158,0.142,0.224,0.220,0.217,0.125,0.079,west-northwest,9.2,No
2023/03/10,13:50,0.159,0.143,0.225,0.217,0.216,0.125,0.079,west-northwest,9.8,Yes
2023/03/10,14:00,0.158,0.142,0.224,0.220,0.216,0.125,0.079,west-northwest,9.3,Yes
2023/03/10,14:10,0.157,0.144,0.226,0.220,0.219,0.124,0.078,west-northwest,9.0,Yes
2023/03/10,14:20,0.158,0.142,0.224,0.217,0.216,0.125,0.080,west,7.6,No
2023/03/10,14:30,0.158,0.142,0.224,0.220,0.216,0.126,0.079,west-northwest,8.1,No
2023/03/10,14:40,0.158,0.142,0.224,0.220,0.217,0.124,0.079,west-northwest,8.8,No
2023/03/10,14:50,0.159,0.142,0.222,0.219,0.216,0.125,0.080,west-northwest,9.5,No
2023/03/10,15:00,0.158,0.143,0.225,0.220,0.217,0.126,0.078,west-northwest,10.0,No
2023/03/10,15:10,0.159,0.141,0.224,0.219,0.215,0.125,0.080,west-northwest,8.3,No
2023/03/10,15:20,0.157,0.142,0.226,0.221,0.218,0.125,0.079,west-northwest,9.2,No
2023/03/10,15:30,0.158,0.142,0.224,0.219,0.218,0.125,0.080,west-northwest,8.3,No
2023/03/10,15:40,0.157,0.143,0.225,0.221,0.217,0.126,0.079,west-northwest,7.9,No
2023/03/10,15:50,0.159,0.143,0.224,0.219,0.218,0.125,0.079,west-northwest,7.6,No
2023/03/10,16:00,0.159,0.143,0.225,0.220,0.217,0.125,0.079,west-northwest,11.5,No
2023/03/10,16:10,0.159,0.143,0.224,0.218,0.218,0.125,0.081,west-northwest,10.9,No
2023/03/10,16:20,0.159,0.142,0.227,0.221,0.218,0.126,0.079,west-northwest,10.3,No
2023/03/10,16:30,0.159,0.142,0.225,0.221,0.218,0.125,0.080,west-northwest,8.7,No
2023/03/10,16:40,0.159,0.143,0.225,0.219,0.217,0.126,0.079,west-northwest,10.0,No
2023/03/10,16:50,0.160,0.143,0.224,0.220,0.218,0.125,0.080,west-northwest,6.0,No
2023/03/10,17:00,0.158,0.143,0.224,0.220,0.217,0.126,0.080,west-northwest,3.9,No
2023/03/10,17:10,0.159,0.143,0.225,0.221,0.216,0.125,0.079,west-northwest,5.6,No
2023/03/10,17:20,0.158,0.143,0.225,0.220,0.217,0.126,0.080,northwest,7.1,No
2023/03/10,17:30,0.159,0.142,0.226,0.220,0.217,0.125,0.080,northwest,7.1,No
2023/03/10,17:40,0.158,0.143,0.225,0.221,0.219,0.126,0.080,west-northwest,6.2,No
2023/03/10,17:50,0.158,0.143,0.224,0.220,0.217,0.126,0.079,northwest,4.9,No
2023/03/10,18:00,0.159,0.142,0.226,0.221,0.218,0.126,0.079,northwest,6.9,No
2023/03/10,18:10,0.158,0.143,0.224,0.221,0.217,0.126,0.079,northwest,7.4,No
2023/03/10,18:20,0.159,0.143,0.225,0.220,0.217,0.126,0.079,northwest,5.1,No
2023/03/10,18:30,0.159,0.142,0.226,0.221,0.219,0.126,0.079,northwest,3.6,No
2023/03/10,18:40,0.159,0.143,0.226,0.220,0.217,0.125,0.080,northwest,5.0,No
2023/03/10,18:50,0.159,0.142,0.225,0.221,0.217,0.126,0.080,northwest,5.2,No
2023/03/10,19:00,0.159,0.144,0.225,0.220,0.218,0.126,0.079,west-northwest,5.9,No
2023/03/10,19:10,0.158,0.142,0.225,0.219,0.218,0.125,0.079,northwest,6.4,No
2023/03/10,19:20,0.158,0.142,0.223,0.222,0.219,0.125,0.079,west-northwest,10.7,No
2023/03/10,19:30,0.158,0.142,0.225,0.219,0.216,0.125,0.080,west-northwest,10.7,No
2023/03/10,19:40,0.158,0.142,0.225,0.220,0.218,0.126,0.079,west-northwest,8.3,No
2023/03/10,19:50,0.158,0.143,0.226,0.221,0.216,0.125,0.079,west-northwest,7.2,No
2023/03/10,20:00,0.159,0.143,0.225,0.219,0.217,0.125,0.079,west-northwest,8.9,No
2023/03/10,20:10,0.159,0.143,0.226,0.219,0.217,0.126,0.079,northwest,5.9,No
2023/03/10,20:20,0.158,0.142,0.225,0.221,0.216,0.126,0.079,northwest,6.1,No
2023/03/10,20:30,0.159,0.143,0.225,0.220,0.218,0.125,0.079,west-northwest,4.7,No
2023/03/10,20:40,0.157,0.142,0.225,0.219,0.218,0.125,0.079,west-northwest,5.3,No
2023/03/10,20:50,0.159,0.143,0.224,0.220,0.217,0.125,0.079,west-northwest,6.5,No
2023/03/10,21:00,0.158,0.142,0.225,0.220,0.217,0.126,0.079,northwest,4.7,No
2023/03/10,21:10,0.158,0.143,0.224,0.220,0.217,0.126,0.079,west-northwest,4.2,No
2023/03/10,21:20,0.158,0.142,0.225,0.220,0.217,0.126,0.079,northwest,4.8,No
2023/03/10,21:30,0.158,0.143,0.226,0.220,0.218,0.126,0.080,northwest,5.1,No
2023/03/10,21:40,0.157,0.142,0.225,0.220,0.217,0.125,0.079,northwest,5.2,No
2023/03/10,21:50,0.158,0.142,0.225,0.220,0.216,0.125,0.079,northwest,5.0,No
2023/03/10,22:00,0.158,0.143,0.225,0.220,0.217,0.126,0.079,west-northwest,6.4,No
2023/03/10,22:10,0.158,0.143,0.225,0.220,0.216,0.126,0.079,northwest,4.9,No
2023/03/10,22:20,0.159,0.142,0.224,0.219,0.217,0.126,0.079,northwest,5.7,No
2023/03/10,22:30,0.158,0.142,0.225,0.221,0.217,0.125,0.078,northwest,6.2,No
2023/03/10,22:40,0.158,0.142,0.225,0.219,0.216,0.126,0.079,northwest,5.4,No
2023/03/10,22:50,0.158,0.143,0.225,0.220,0.217,0.127,0.079,northwest,6.7,No
2023/03/10,23:00,0.158,0.142,0.225,0.221,0.219,0.126,0.079,northwest,5.9,No
2023/03/10,23:10,0.158,0.142,0.226,0.220,0.216,0.125,0.079,northwest,8.1,No
2023/03/10,23:20,0.158,0.142,0.224,0.219,0.217,0.125,0.080,northwest,7.8,No
2023/03/10,23:30,0.158,0.143,0.225,0.220,0.217,0.126,0.079,northwest,7.8,No
2023/03/10,23:40,0.158,0.142,0.225,0.221,0.216,0.126,0.079,northwest,9.3,No
2023/03/10,23:50,0.158,0.142,0.224,0.220,0.216,0.125,0.079,west-northwest,8.2,No
